Location: Eschertshofen
(49.3064°N, 11.5756°E)
Time: 23:01:43
(UTC+00:00)

Lacrosse 5 rocket - Pass Details

Date: 18 September 2020
Orbit: 460 x 636 km, 57.0° (Epoch: 30 October)

Event Time Altitude Azimuth Distance (km) Brightness Sun altitude
Rises 21:26:59 0° 301° (WNW) 2,850 5.8 -34.8°
Reaches altitude 10° 21:29:19 10° 308° (NW) 1,969 4.8 -35.0°
Enters shadow 21:30:45 19° 317° (NW) 1,472 4.1 -35.2°
